�N����,����,����,����,����,�C��,���x,�~����,�S�V����,�ő�u�ԕ���,,,,,
,,,,,,,,,����,����,����,�N��,,
yyyy/mm/dd,hh:mm:ss,(16),16����,m/s,��,%,mm,KW/�u,(16),16����,m/s,Time,,
2016/6/1,1:00:00,12,��,3.5,10.4,98.2,0,0,13,���k��,5.4,47,,
2016/6/1,2:00:00,13,���k��,2.3,10.3,97.9,0,0,13,���k��,5.9,12,,
2016/6/1,3:00:00,8,��,0.8,7.8,98.4,0,0,14,�k��,4.3,1,,
2016/6/1,4:00:00,14,�k��,3.1,10,99.7,0,0,14,�k��,6,56,,
2016/6/1,5:00:00,4,��,0.6,10.8,99.4,0,0.02,14,�k��,3.7,1,,
2016/6/1,6:00:00,5,���쓌,0.7,11.1,99,0,0.05,3,���k��,1.6,29,,
2016/6/1,7:00:00,11,���쐼,2.1,10.8,98.8,0,0.06,10,�쐼,3.6,44,,
2016/6/1,8:00:00,14,�k��,1.5,12,99.4,0.5,0.1,1,�k�k��,4.2,41,,
2016/6/1,9:00:00,7,��쓌,2.2,12.9,95.9,0.5,0.33,13,���k��,4,5,,
2016/6/1,10:00:00,13,���k��,3.1,16,72.7,0,0.86,13,���k��,5.5,52,,
2016/6/1,11:00:00,15,�k�k��,3.1,16.7,75.1,0,0.99,14,�k��,6,11,,
2016/6/1,12:00:00,5,���쓌,3.2,14.4,83.8,0,0.75,5,���쓌,5.1,59,,
2016/6/1,13:00:00,5,���쓌,2.5,13.2,88.2,0,0.54,6,�쓌,5.6,23,,
2016/6/1,14:00:00,4,��,1.9,12.6,93.6,0,0.3,4,��,5.2,23,,
2016/6/1,15:00:00,4,��,0.8,12.1,94.4,0,0.16,4,��,3.3,5,,
2016/6/1,16:00:00,6,�쓌,1.3,12.3,93.4,1.5,0.21,5,���쓌,2.5,15,,
2016/6/1,17:00:00,5,���쓌,0.9,11.5,96,0,0.15,6,�쓌,2.9,10,,
2016/6/1,18:00:00,3,���k��,2.3,10.7,97.1,0,0.06,5,���쓌,3.7,56,,
2016/6/1,19:00:00,3,���k��,1.9,10.3,98.3,0,0.01,4,��,3.5,4,,
2016/6/1,20:00:00,1,�k�k��,3.3,9.6,95,1.5,0,1,�k�k��,5.7,51,,
2016/6/1,21:00:00,15,�k�k��,2.8,8.8,93.2,1.5,0,1,�k�k��,5.7,14,,
2016/6/1,22:00:00,15,�k�k��,2.3,8.5,94,1,0,14,�k��,6.7,18,,
2016/6/1,23:00:00,14,�k��,1.9,8.3,94.2,0,0,14,�k��,6.1,26,,
2016/6/1,0:00:00,13,���k��,2.3,7.9,96.3,0,0,14,�k��,4.1,57,,
2016/6/2,1:00:00,15,�k�k��,1.4,7.7,95.5,0.5,0,13,���k��,4.6,0,,
2016/6/2,2:00:00,13,���k��,2.2,7.3,93.8,0,0,1,�k�k��,5,20,,
2016/6/2,3:00:00,14,�k��,2.4,7.6,87.3,0,0,1,�k�k��,6.6,47,,
2016/6/2,4:00:00,15,�k�k��,1.7,7.8,83.2,0,0,15,�k�k��,6.7,10,,
2016/6/2,5:00:00,14,�k��,2.2,7.7,84.7,0,0.05,15,�k�k��,4.2,0,,
2016/6/2,6:00:00,1,�k�k��,3.7,8.2,78.9,0,0.13,1,�k�k��,6.2,40,,
2016/6/2,7:00:00,16,�k,3.6,10.6,70.5,0,0.26,16,�k,8.8,56,,
2016/6/2,8:00:00,14,�k��,3.9,11,64.4,0,0.49,1,�k�k��,8.8,2,,
2016/6/2,9:00:00,16,�k,2.5,12.9,65.7,0,0.72,5,���쓌,7.9,10,,
2016/6/2,10:00:00,15,�k�k��,3.9,13.6,59.1,0,0.68,14,�k��,7.7,51,,
2016/6/2,11:00:00,15,�k�k��,3.3,13.4,58.5,0,0.52,14,�k��,8.1,2,,
2016/6/2,12:00:00,16,�k,2.7,13.8,53.2,0,0.42,1,�k�k��,9.4,41,,
2016/6/2,13:00:00,15,�k�k��,3.8,15.3,58.4,0,0.69,14,�k��,9.5,31,,
2016/6/2,14:00:00,15,�k�k��,3.8,15,52.7,0,0.57,13,���k��,8.5,49,,
2016/6/2,15:00:00,16,�k,3.7,13.4,57.8,0,0.46,15,�k�k��,9,0,,
2016/6/2,16:00:00,15,�k�k��,5.2,13.2,54.5,0,0.4,13,���k��,9.7,55,,
2016/6/2,17:00:00,15,�k�k��,4.3,12.4,54.6,0,0.54,13,���k��,11,35,,
2016/6/2,18:00:00,15,�k�k��,3.5,11.6,56.9,0,0.16,15,�k�k��,12.4,12,,
2016/6/2,19:00:00,14,�k��,2.4,9.9,63.7,0,0.07,14,�k��,9.8,8,,
2016/6/2,20:00:00,15,�k�k��,2.5,8.8,69.1,0,0,16,�k,5,22,,
2016/6/2,21:00:00,14,�k��,2.3,5.7,82.7,0,0,15,�k�k��,6.1,12,,
2016/6/2,22:00:00,15,�k�k��,0.9,6.8,77.3,0,0,15,�k�k��,3.6,19,,
2016/6/2,23:00:00,12,��,2.1,1.7,97.3,0,0,12,��,3.7,54,,
2016/6/2,0:00:00,12,��,1.6,1.9,94.3,0,0,15,�k�k��,4.9,27,,
2016/6/3,1:00:00,13,���k��,2.8,2.5,91.9,0,0,12,��,4.4,47,,
2016/6/3,2:00:00,12,��,3.3,1.5,96.7,0,0,12,��,3.8,53,,
2016/6/3,3:00:00,12,��,2.1,1.4,96.3,0,0,12,��,4.2,41,,
2016/6/3,4:00:00,12,��,1.5,0.6,97.8,0,0,12,��,4.1,16,,
2016/6/3,5:00:00,12,��,2.8,2.8,98.4,0,0.08,12,��,3.3,59,,
2016/6/3,6:00:00,12,��,1.5,8.3,82,0,0.27,12,��,3.7,10,,
2016/6/3,7:00:00,11,���쐼,2.5,11.5,66.9,0,0.48,12,��,5.6,37,,
2016/6/3,8:00:00,10,�쐼,2.3,13.5,62.2,0,0.68,10,�쐼,4.4,57,,
2016/6/3,9:00:00,8,��,2.7,12.9,66.7,0,0.6,7,��쓌,5.5,40,,
2016/6/3,10:00:00,8,��,3.7,14.3,56.2,0,0.67,8,��,6,59,,
2016/6/3,11:00:00,7,��쓌,2.2,14.1,50.8,0,1.01,8,��,7.2,15,,
2016/6/3,12:00:00,7,��쓌,2.5,15,55.3,0,0.6,7,��쓌,5.9,1,,
2016/6/3,13:00:00,7,��쓌,3.5,15.6,47.6,0,0.9,6,�쓌,6.3,54,,
2016/6/3,14:00:00,8,��,3,14.4,59.4,0,0.62,8,��,5.9,28,,
2016/6/3,15:00:00,9,��쐼,1.2,13,69.7,0,0.11,8,��,4.1,7,,
2016/6/3,16:00:00,10,�쐼,2.8,13.5,66,0,0.13,10,�쐼,4.6,54,,
2016/6/3,17:00:00,10,�쐼,1.3,14.4,65.6,0,0.23,9,��쐼,4.2,17,,
2016/6/3,18:00:00,15,�k�k��,0.7,14.2,73.1,0,0.14,13,���k��,3.3,37,,
2016/6/3,19:00:00,16,�k,0.6,12.6,77,0,0.03,1,�k�k��,3,36,,
2016/6/3,20:00:00,11,���쐼,0.5,10.5,92.7,0,0,15,�k�k��,1.1,13,,
2016/6/3,21:00:00,12,��,0.6,7.7,97.1,0,0,12,��,1.4,48,,
2016/6/3,22:00:00,3,���k��,3.5,8.5,90.6,0,0,3,���k��,5.7,41,,
2016/6/3,23:00:00,3,���k��,3.4,7.4,91,0,0,3,���k��,7.3,23,,
2016/6/3,0:00:00,2,�k��,2.1,6.3,93.2,0,0,3,���k��,4.6,20,,
2016/6/4,1:00:00,15,�k�k��,0.6,5.2,96.4,0,0,3,���k��,2.7,5,,
2016/6/4,2:00:00,14,�k��,0.9,4.3,98.4,0,0,12,��,1.4,44,,
2016/6/4,3:00:00,15,�k�k��,0.8,4.1,98.9,0,0,13,���k��,1.8,27,,
2016/6/4,4:00:00,14,�k��,0.4,5,98.9,0,0,12,��,7.2,59,,
2016/6/4,5:00:00,13,���k��,0.9,5.6,99.1,0,0.02,12,��,2.3,40,,
2016/6/4,6:00:00,15,�k�k��,0.6,6.5,98.4,0,0.04,13,���k��,2.5,14,,
2016/6/4,7:00:00,1,�k�k��,1.2,7.2,95.2,0,0.07,2,�k��,2.4,46,,
2016/6/4,8:00:00,2,�k��,1.5,7.4,95.6,0,0.09,2,�k��,2.6,30,,
2016/6/4,9:00:00,2,�k��,1.8,7.5,94.2,0.5,0.11,2,�k��,3.6,59,,
2016/6/4,10:00:00,2,�k��,1.3,8,93.6,0,0.2,3,���k��,4,23,,
2016/6/4,11:00:00,4,��,2.8,7.8,93.2,0,0.19,4,��,4.7,55,,
2016/6/4,12:00:00,3,���k��,3.2,7.9,92.1,0,0.27,3,���k��,7,37,,
2016/6/4,13:00:00,2,�k��,3.5,8.4,92.4,0,0.34,3,���k��,7,27,,
2016/6/4,14:00:00,3,���k��,3.8,8.4,94.4,0,0.23,3,���k��,6,52,,
2016/6/4,15:00:00,2,�k��,2.7,8.4,96.3,0,0.12,3,���k��,5.7,14,,
2016/6/4,16:00:00,3,���k��,3.1,7.6,97.5,0,0.09,3,���k��,5.8,42,,
2016/6/4,17:00:00,3,���k��,4.2,7.2,97.7,0.5,0.1,3,���k��,8,40,,
2016/6/4,18:00:00,3,���k��,4.3,6.2,96.9,0,0.05,3,���k��,6.5,48,,
2016/6/4,19:00:00,3,���k��,3.7,6,98,0.5,0.01,3,���k��,5.7,56,,
2016/6/4,20:00:00,3,���k��,2.4,6.1,98.7,1,0,3,���k��,6.5,11,,
2016/6/4,21:00:00,4,��,3.5,6,98.8,8.5,0,4,��,5.6,24,,
2016/6/4,22:00:00,3,���k��,2.9,5.8,98.8,1,0,3,���k��,6,35,,
2016/6/4,23:00:00,4,��,2,6,98.4,0,0,3,���k��,4.3,17,,
2016/6/4,0:00:00,1,�k�k��,0.4,6.2,98.2,0,0,4,��,3.9,1,,
2016/6/5,1:00:00,2,�k��,0.4,6,98.2,0,0,15,�k�k��,2,10,,
2016/6/5,2:00:00,11,���쐼,1,6.1,98.2,0,0,14,�k��,2.3,2,,
2016/6/5,3:00:00,12,��,1.5,6,98.8,0,0,11,���쐼,2.3,56,,
2016/6/5,4:00:00,11,���쐼,0.7,6.2,98.9,0,0,12,��,1.8,14,,
2016/6/5,5:00:00,11,���쐼,1.2,6.7,98.9,0,0.02,11,���쐼,1.9,58,,
2016/6/5,6:00:00,14,�k��,1.7,8.3,97.2,0,0.11,14,�k��,3.3,52,,
2016/6/5,7:00:00,15,�k�k��,2.2,9.1,89.4,0,0.19,16,�k,3.9,51,,
2016/6/5,8:00:00,16,�k,2,10.2,84.7,0,0.29,14,�k��,4.2,14,,
2016/6/5,9:00:00,6,�쓌,3.1,8.9,89,0,0.4,6,�쓌,4.3,58,,
2016/6/5,10:00:00,6,�쓌,2.5,8.6,86.8,0,0.41,6,�쓌,5.1,5,,
2016/6/5,11:00:00,7,��쓌,1.4,9.4,86.9,0,0.29,5,���쓌,3.6,5,,
2016/6/5,12:00:00,8,��,3.3,10.3,79.5,0,0.45,8,��,5,52,,
2016/6/5,13:00:00,8,��,3,12,80.3,0,0.72,7,��쓌,5.5,34,,
2016/6/5,14:00:00,7,��쓌,3.3,11.1,78.3,0,0.69,7,��쓌,5.2,56,,
2016/6/5,15:00:00,8,��,3.2,11.4,71.8,0,0.78,8,��,5.8,48,,
2016/6/5,16:00:00,8,��,3.1,10.8,72.2,0,0.38,7,��쓌,5.3,11,,
2016/6/5,17:00:00,8,��,2.5,10.4,76.2,0,0.25,8,��,4.3,53,,
2016/6/5,18:00:00,8,��,2,10.2,78.6,0,0.19,8,��,4.1,49,,
2016/6/5,19:00:00,9,��쐼,0.9,8.1,87.8,0,0.06,9,��쐼,3.4,5,,
2016/6/5,20:00:00,12,��,1,4.5,97,0,0,13,���k��,1.8,48,,
2016/6/5,21:00:00,12,��,1.1,2.7,98.8,0,0,12,��,2.2,33,,
2016/6/5,22:00:00,15,�k�k��,0.3,3.6,99.7,0,0,12,��,2.1,20,,
2016/6/5,23:00:00,12,��,2.5,3.9,99.8,0,0,12,��,3.1,58,,
2016/6/5,0:00:00,13,���k��,1.1,3.4,99.8,0,0,13,���k��,3.2,42,,
2016/6/6,1:00:00,13,���k��,1.7,2.9,100,0,0,12,��,2.5,15,,
2016/6/6,2:00:00,13,���k��,1.7,3.2,99.9,0,0,13,���k��,3.7,48,,
2016/6/6,3:00:00,12,��,2.4,3.5,99.9,0,0,12,��,3.6,9,,
2016/6/6,4:00:00,12,��,0.8,5.2,99.6,0,0.01,12,��,3.9,3,,
2016/6/6,5:00:00,13,���k��,1.3,7.4,99.6,0,0.09,13,���k��,4.6,29,,
2016/6/6,6:00:00,5,���쓌,1.4,10.2,92.9,0,0.28,5,���쓌,2.3,53,,
2016/6/6,7:00:00,12,��,0.4,13.1,79.8,0,0.48,6,�쓌,2,0,,
2016/6/6,8:00:00,7,��쓌,2.2,14.6,78.2,0,0.66,5,���쓌,4.1,58,,
2016/6/6,9:00:00,7,��쓌,2.5,15.1,73.4,0,0.83,5,���쓌,4.6,7,,
2016/6/6,10:00:00,8,��,4.1,14.2,73.6,0,0.97,8,��,6.1,51,,
2016/6/6,11:00:00,8,��,3.8,14.8,71.3,0,1.06,8,��,6.5,52,,
2016/6/6,12:00:00,8,��,3.8,15.8,66.4,0,1.09,8,��,6.4,2,,
2016/6/6,13:00:00,8,��,4,16.6,62.5,0,1.05,9,��쐼,6.9,57,,
2016/6/6,14:00:00,7,��쓌,3.4,16.9,64.1,0,0.94,7,��쓌,6.2,50,,
2016/6/6,15:00:00,8,��,3,16.8,61.6,0,0.79,8,��,5.9,18,,
2016/6/6,16:00:00,8,��,2.9,16.8,57.3,0,0.62,8,��,6.4,47,,
2016/6/6,17:00:00,7,��쓌,2.5,15.5,65.4,0,0.44,8,��,5.8,13,,
2016/6/6,18:00:00,6,�쓌,1.7,13.6,77.9,0,0.23,7,��쓌,3.7,6,,
2016/6/6,19:00:00,3,���k��,1,9.8,91.3,0,0.04,4,��,2.2,44,,
2016/6/6,20:00:00,2,�k��,1.1,8.4,94.1,0,0,3,���k��,1.9,16,,
2016/6/6,21:00:00,2,�k��,1.1,8.3,96.4,0,0,3,���k��,2.3,8,,
2016/6/6,22:00:00,1,�k�k��,0.7,7.8,98.1,0,0,2,�k��,1.4,46,,
2016/6/6,23:00:00,3,���k��,1.4,8.8,98.3,0,0,3,���k��,2.1,52,,
2016/6/6,0:00:00,2,�k��,1.5,9.5,97.3,0,0,3,���k��,2.6,46,,
2016/6/7,1:00:00,3,���k��,1.7,9.8,96.1,0,0,2,�k��,3,4,,
2016/6/7,2:00:00,16,�k,1,9.3,96.1,0,0,2,�k��,3.7,8,,
2016/6/7,3:00:00,11,���쐼,0.3,8,98.5,0,0,12,��,1.7,34,,
2016/6/7,4:00:00,16,�É�,0.1,7.2,99.1,0,0,10,�쐼,2.1,33,,
2016/6/7,5:00:00,11,���쐼,1,6.7,99.5,0,0.04,11,���쐼,1.4,48,,
2016/6/7,6:00:00,16,�É�,0.1,11.2,97.8,0,0.22,12,��,1.6,10,,
2016/6/7,7:00:00,13,���k��,1.4,14.8,74.7,0,0.46,12,��,2.4,49,,
2016/6/7,8:00:00,6,�쓌,2.5,13.8,79.9,0,0.51,6,�쓌,3.6,59,,
2016/6/7,9:00:00,6,�쓌,2.2,14.1,79.8,0,0.5,5,���쓌,3.8,30,,
2016/6/7,10:00:00,6,�쓌,2.5,15.4,73.6,0,0.78,7,��쓌,4.3,11,,
2016/6/7,11:00:00,4,��,2.5,16.1,73.4,0,0.81,5,���쓌,4.8,27,,
2016/6/7,12:00:00,4,��,2.8,16.7,73.3,0,0.69,4,��,4.2,34,,
2016/6/7,13:00:00,3,���k��,3.3,17.7,67.5,0,0.98,3,���k��,5.9,53,,
2016/6/7,14:00:00,3,���k��,3,18.4,69.1,0,0.89,3,���k��,4.4,3,,
2016/6/7,15:00:00,4,��,2.2,18.1,71.8,0,0.74,4,��,4.3,36,,
2016/6/7,16:00:00,3,���k��,2.5,16.6,70.6,0,0.57,4,��,4.3,24,,
2016/6/7,17:00:00,3,���k��,1.6,16.4,77.4,0,0.36,3,���k��,3.5,10,,
2016/6/7,18:00:00,5,���쓌,2.9,13.4,86,0,0.18,5,���쓌,3.8,53,,
2016/6/7,19:00:00,4,��,1.3,11.2,93.1,0,0.04,4,��,3,10,,
2016/6/7,20:00:00,2,�k��,2.3,11.6,95.1,0,0,2,�k��,3.8,57,,
2016/6/7,21:00:00,2,�k��,1.4,10.4,95,0,0,2,�k��,4.6,8,,
2016/6/7,22:00:00,1,�k�k��,1.8,10.4,94.6,0,0,1,�k�k��,3.7,39,,
2016/6/7,23:00:00,14,�k��,0.6,9.3,95,0,0,1,�k�k��,2.9,44,,
2016/6/7,0:00:00,12,��,1.8,7.4,97.3,0,0,1,�k�k��,2.8,16,,
2016/6/8,1:00:00,11,���쐼,1.3,6.9,98.7,0,0,12,��,2.4,38,,
2016/6/8,2:00:00,12,��,0.9,6.1,99,0,0,12,��,1.7,23,,
2016/6/8,3:00:00,12,��,1,6.8,99.4,0,0,12,��,2.5,11,,
2016/6/8,4:00:00,10,�쐼,0.7,6.8,99.5,0,0,12,��,2.5,15,,
2016/6/8,5:00:00,16,�k,0.3,8.9,99.9,0,0.07,15,�k�k��,2.2,52,,
2016/6/8,6:00:00,16,�É�,0.2,11.1,99.4,0,0.18,8,��,1.5,7,,
2016/6/8,7:00:00,5,���쓌,0.6,12.5,93.1,0,0.35,5,���쓌,2.5,21,,
2016/6/8,8:00:00,5,���쓌,2.5,13.8,88.1,0,0.58,5,���쓌,3.5,59,,
2016/6/8,9:00:00,4,��,2.4,14.9,84.4,0,0.81,5,���쓌,5.2,32,,
2016/6/8,10:00:00,4,��,2.6,14.6,90.9,0,0.7,4,��,4.6,18,,
2016/6/8,11:00:00,4,��,3.5,15.9,85.3,0,0.89,3,���k��,5.2,5,,
2016/6/8,12:00:00,3,���k��,3.9,16.4,86,0,1.04,4,��,5.6,56,,
2016/6/8,13:00:00,8,��,3.7,17.7,79.2,0,0.79,9,��쐼,6.8,49,,
2016/6/8,14:00:00,8,��,4.9,17,80.6,0,0.72,8,��,9.7,44,,
2016/6/8,15:00:00,8,��,4.4,15.6,85.5,0,0.31,8,��,9.2,13,,
2016/6/8,16:00:00,9,��쐼,4.3,15.1,91.4,0,0.14,8,��,8.6,55,,
2016/6/8,17:00:00,8,��,4.4,14.9,93.5,0,0.1,8,��,8.3,45,,
2016/6/8,18:00:00,8,��,2.7,14.2,96.7,0,0.03,8,��,7.4,8,,
2016/6/8,19:00:00,8,��,2.7,13,97.8,0,0.01,7,��쓌,6.7,18,,
2016/6/8,20:00:00,8,��,2.3,13,98.5,0,0,7,��쓌,6.8,22,,
2016/6/8,21:00:00,8,��,2.8,13.3,98.8,0.5,0,8,��,5.6,48,,
2016/6/8,22:00:00,8,��,2.7,12.9,98.6,0.5,0,9,��쐼,6.1,22,,
2016/6/8,23:00:00,6,�쓌,0.9,12.3,99.1,1,0,9,��쐼,4.4,3,,
2016/6/8,0:00:00,5,���쓌,0.4,13,99.3,0,0,9,��쐼,4.1,8,,
2016/6/9,1:00:00,2,�k��,0.7,12.6,99.4,0,0,15,�k�k��,2.3,45,,
2016/6/9,2:00:00,7,��쓌,0.5,13.1,99.6,0,0,14,�k��,2.1,21,,
2016/6/9,3:00:00,2,�k��,1.7,13.1,99.7,2.5,0,2,�k��,2.5,57,,
2016/6/9,4:00:00,13,���k��,0.6,12.5,99.7,0,0,2,�k��,2.5,26,,
2016/6/9,5:00:00,16,�É�,0,13.5,99.9,0,0.03,1,�k�k��,1.2,17,,
2016/6/9,6:00:00,3,���k��,0.9,14.6,99.8,0,0.13,3,���k��,1.7,52,,
2016/6/9,7:00:00,4,��,2,14.3,99,0,0.21,4,��,2.8,52,,
2016/6/9,8:00:00,5,���쓌,1.6,14.6,98.5,0,0.16,6,�쓌,2.5,35,,
2016/6/9,9:00:00,6,�쓌,2.4,15.2,94.9,0,0.35,6,�쓌,3.4,55,,
2016/6/9,10:00:00,5,���쓌,1.5,14.6,97.3,0.5,0.27,3,���k��,3.7,9,,
2016/6/9,11:00:00,4,��,2.8,15.4,97,0,0.31,4,��,3.7,56,,
2016/6/9,12:00:00,5,���쓌,1.2,13.3,97.8,0,0.14,6,�쓌,4.5,19,,
2016/6/9,13:00:00,9,��쐼,0.3,13.6,98.5,4.5,0.09,4,��,1.7,7,,
2016/6/9,14:00:00,15,�k�k��,0.4,14.8,98.4,2,0.16,15,�k�k��,1.7,43,,
2016/6/9,15:00:00,5,���쓌,1.5,14.1,98.4,1.5,0.12,5,���쓌,2.5,41,,
2016/6/9,16:00:00,4,��,1.5,13.4,99,1,0.1,6,�쓌,3.1,18,,
2016/6/9,17:00:00,3,���k��,1.4,13.1,99.2,1,0.05,3,���k��,2.1,52,,
2016/6/9,18:00:00,14,�k��,0.7,13.8,99.5,1,0.03,1,�k�k��,2.3,11,,
2016/6/9,19:00:00,6,�쓌,0.7,12.8,99.4,2,0.01,5,���쓌,2.9,18,,
2016/6/9,20:00:00,16,�É�,0.2,13.1,99.6,1,0,11,���쐼,1.4,21,,
2016/6/9,21:00:00,12,��,0.4,13.8,99.8,1,0,12,��,2.5,23,,
2016/6/9,22:00:00,12,��,1.8,14.5,99.8,0,0,13,���k��,2.9,54,,
2016/6/9,23:00:00,16,�É�,0.1,14.9,99.7,0,0,1,�k�k��,2,14,,
2016/6/9,0:00:00,13,���k��,0.8,14.8,99.6,0,0,12,��,1.8,28,,
2016/6/10,1:00:00,12,��,1,14.4,99.6,0,0,12,��,2.5,5,,
2016/6/10,2:00:00,14,�k��,0.7,14.1,98.9,0,0,14,�k��,3.7,11,,
2016/6/10,3:00:00,13,���k��,1.7,14.4,98.8,0,0,13,���k��,2.5,55,,
2016/6/10,4:00:00,14,�k��,2.4,14.2,98.1,0.5,0,14,�k��,3.9,49,,
2016/6/10,5:00:00,13,���k��,2.6,14,98.7,0,0.04,14,�k��,4.3,20,,
2016/6/10,6:00:00,13,���k��,1.2,16.6,94.8,0,0.25,13,���k��,3.3,7,,
2016/6/10,7:00:00,13,���k��,0.3,18.4,87.1,0,0.45,13,���k��,2.1,5,,
2016/6/10,8:00:00,14,�k��,2.4,20.7,72.8,0,0.63,13,���k��,5.6,57,,
2016/6/10,9:00:00,14,�k��,2.6,22.4,63.4,0,0.8,3,���k��,4.9,54,,
2016/6/10,10:00:00,14,�k��,2.3,23.7,60.4,0,0.96,13,���k��,7.1,22,,
2016/6/10,11:00:00,14,�k��,2.3,24.2,55.8,0,1.05,12,��,6.2,29,,
2016/6/10,12:00:00,7,��쓌,4.1,22.1,71,0,1.09,8,��,6.7,41,,
2016/6/10,13:00:00,7,��쓌,3.8,21.8,64.6,0,1.05,7,��쓌,6.8,43,,
2016/6/10,14:00:00,7,��쓌,3.6,20.8,69.3,0,0.52,7,��쓌,5.9,1,,
2016/6/10,15:00:00,1,�k�k��,0.9,23.1,57.7,0,0.55,4,��,5,51,,
2016/6/10,16:00:00,3,���k��,5,18.1,72.8,0,0.54,3,���k��,9.7,19,,
2016/6/10,17:00:00,3,���k��,3.3,15.8,82.2,0,0.41,4,��,7.1,11,,
2016/6/10,18:00:00,4,��,2.1,14.8,90.3,0,0.23,4,��,4.5,35,,
2016/6/10,19:00:00,3,���k��,1,13,95.2,0,0.05,3,���k��,3.9,2,,
2016/6/10,20:00:00,10,�쐼,0.3,10.3,97.7,0,0,14,�k��,2.1,46,,
2016/6/10,21:00:00,14,�k��,0.9,9,98.9,0,0,15,�k�k��,2.5,39,,
2016/6/10,22:00:00,13,���k��,0.9,8.7,99.1,0,0,12,��,2.9,15,,
2016/6/10,23:00:00,11,���쐼,1.6,7.9,99.5,0,0,11,���쐼,2.5,45,,
2016/6/10,0:00:00,16,�k,0.8,7.7,99.7,0,0,12,��,2.8,46,,
2016/6/11,1:00:00,11,���쐼,0.9,5.9,99.6,0,0,12,��,1.6,25,,
2016/6/11,2:00:00,11,���쐼,0.7,5.6,99.7,0,0,12,��,1.8,46,,
2016/6/11,3:00:00,12,��,2.3,7.1,100,0,0,14,�k��,4,35,,
2016/6/11,4:00:00,5,���쓌,1.4,6.9,99.9,0,0,12,��,3.4,4,,
2016/6/11,5:00:00,13,���k��,2.8,11.5,100,0,0.1,14,�k��,4,58,,
2016/6/11,6:00:00,13,���k��,3.4,15.5,76.5,0,0.3,13,���k��,6.7,59,,
2016/6/11,7:00:00,4,��,1.1,18.4,59.9,0,0.49,14,�k��,6.3,0,,
2016/6/11,8:00:00,6,�쓌,2.7,17.6,69.2,0,0.65,1,�k�k��,4.4,0,,
2016/6/11,9:00:00,7,��쓌,3.8,16.6,69.3,0,0.66,8,��,5.7,59,,
2016/6/11,10:00:00,7,��쓌,3.2,16.5,75.4,0,0.82,7,��쓌,5.6,0,,
2016/6/11,11:00:00,7,��쓌,3,16.9,71,0,1.01,7,��쓌,5.9,1,,
2016/6/11,12:00:00,7,��쓌,3.4,17.7,68,0,0.97,8,��,6,35,,
2016/6/11,13:00:00,8,��,3.6,18.3,72.6,0,0.97,8,��,6,55,,
2016/6/11,14:00:00,8,��,3.7,17,67.7,0,0.88,8,��,7,27,,
2016/6/11,15:00:00,8,��,3.9,17,65.2,0,0.76,8,��,6.8,21,,
2016/6/11,16:00:00,7,��쓌,2.5,16.5,72.9,0,0.52,8,��,5.4,11,,
2016/6/11,17:00:00,7,��쓌,2.3,15.7,71.8,0,0.42,7,��쓌,4.5,1,,
2016/6/11,18:00:00,8,��,1.2,14.1,81.8,0,0.19,8,��,4.2,5,,
2016/6/11,19:00:00,16,�É�,0.2,12.5,90.4,0,0.07,7,��쓌,2.6,4,,
2016/6/11,20:00:00,16,�É�,0.1,10.5,97.6,0,0,3,���k��,1.6,40,,
2016/6/11,21:00:00,14,�k��,0.3,8.6,98.6,0,0,1,�k�k��,0.8,27,,
2016/6/11,22:00:00,16,�É�,0.2,8.4,99.2,0,0,12,��,1.5,17,,
2016/6/11,23:00:00,12,��,1.2,7.6,99.2,0,0,12,��,1.8,41,,
2016/6/11,0:00:00,12,��,1.1,7.4,99.4,0,0,12,��,2.4,43,,
2016/6/12,1:00:00,10,�쐼,0.8,8.3,99.8,0,0,12,��,2.5,40,,
2016/6/12,2:00:00,2,�k��,0.5,9.7,99.8,0,0,14,�k��,7.2,40,,
2016/6/12,3:00:00,4,��,1.1,10.2,99.6,0,0,4,��,1.8,56,,
2016/6/12,4:00:00,5,���쓌,1.1,10.4,98.7,0,0,16,�k,2.2,23,,
2016/6/12,5:00:00,5,���쓌,1.7,10.1,95.3,0,0.03,5,���쓌,2.7,26,,
2016/6/12,6:00:00,4,��,2.5,10.4,93.7,0,0.08,4,��,3.5,57,,
2016/6/12,7:00:00,4,��,2.8,10.9,90.8,0,0.14,5,���쓌,4.4,16,,
2016/6/12,8:00:00,5,���쓌,3.1,10.4,92.5,0,0.21,4,��,4.9,47,,
2016/6/12,9:00:00,4,��,3.7,10.1,94,0,0.19,4,��,5.1,56,,
2016/6/12,10:00:00,4,��,3.8,10,93.9,0,0.2,4,��,5.9,19,,
2016/6/12,11:00:00,4,��,3.7,9.8,92.9,0,0.2,4,��,6.5,39,,
2016/6/12,12:00:00,4,��,4,9.4,93.5,0,0.21,4,��,6.3,45,,
2016/6/12,13:00:00,4,��,3.8,9.1,95.8,0,0.17,4,��,7,5,,
2016/6/12,14:00:00,4,��,2.6,9.5,95.5,0,0.19,4,��,5.2,9,,
2016/6/12,15:00:00,4,��,2.5,9.2,95.6,0,0.15,4,��,4.7,11,,
2016/6/12,16:00:00,4,��,2.3,8.9,97.5,0,0.12,4,��,4.1,2,,
2016/6/12,17:00:00,4,��,2,8.9,96.9,0,0.08,3,���k��,4.1,3,,
2016/6/12,18:00:00,4,��,1.3,8.8,97,0,0.04,4,��,2.5,0,,
2016/6/12,19:00:00,4,��,1.3,8.7,98.5,0,0.01,3,���k��,2.1,53,,
2016/6/12,20:00:00,3,���k��,0.8,8.8,99.1,0,0,3,���k��,2.1,24,,
2016/6/12,21:00:00,2,�k��,0.6,8.9,99.3,0,0,3,���k��,1.5,30,,
2016/6/12,22:00:00,3,���k��,2,8.8,99.3,0,0,3,���k��,2.7,56,,
2016/6/12,23:00:00,3,���k��,1.4,8.7,99.1,0,0,4,��,3.5,28,,
2016/6/12,0:00:00,1,�k�k��,1.8,8.5,99.2,0,0,3,���k��,3.2,13,,
2016/6/13,1:00:00,1,�k�k��,1.3,8.4,99.4,0,0,2,�k��,3,41,,
2016/6/13,2:00:00,1,�k�k��,1.3,8.3,99.6,0,0,2,�k��,3,41,,
2016/6/13,3:00:00,1,�k�k��,1.4,8.3,99.7,0,0,1,�k�k��,2.6,55,,
2016/6/13,4:00:00,1,�k�k��,1.5,8.2,99.7,0,0,1,�k�k��,2.6,49,,
2016/6/13,5:00:00,16,�k,1,8.3,99.7,0.5,0.01,15,�k�k��,2.7,45,,
2016/6/13,6:00:00,14,�k��,1.1,8.6,99.7,0.5,0.03,1,�k�k��,2.2,19,,
2016/6/13,7:00:00,14,�k��,1.5,9.2,99.8,0,0.08,14,�k��,3.8,38,,
2016/6/13,8:00:00,15,�k�k��,1,9.5,99.7,0.5,0.09,14,�k��,2.5,4,,
2016/6/13,9:00:00,2,�k��,1.9,10.1,99.4,0,0.15,2,�k��,3.2,54,,
2016/6/13,10:00:00,3,���k��,2.8,10.4,99.1,0,0.18,3,���k��,4.8,49,,
2016/6/13,11:00:00,3,���k��,3,10.6,99.2,0.5,0.19,2,�k��,5.3,25,,
2016/6/13,12:00:00,3,���k��,3.1,10.6,99.3,0,0.18,3,���k��,4.6,50,,
2016/6/13,13:00:00,3,���k��,4,10.8,99.4,0,0.23,3,���k��,5.6,24,,
2016/6/13,14:00:00,3,���k��,3.8,10.7,99.1,0,0.19,3,���k��,6.2,25,,
2016/6/13,15:00:00,3,���k��,2.9,10.9,99,0,0.12,3,���k��,5.8,11,,
2016/6/13,16:00:00,4,��,2,11,99.3,0,0.07,3,���k��,4.4,15,,
2016/6/13,17:00:00,3,���k��,2.3,11,99.6,0,0.04,2,�k��,4.6,20,,
2016/6/13,18:00:00,3,���k��,3,10.7,99.7,0,0.02,3,���k��,5.4,40,,
2016/6/13,19:00:00,2,�k��,2.6,10.9,99.8,0,0.01,3,���k��,5.2,0,,
2016/6/13,20:00:00,3,���k��,2.5,10.8,99.9,0,0,3,���k��,5.5,24,,
2016/6/13,21:00:00,3,���k��,2.8,10.8,99.9,0.5,0,3,���k��,5.3,3,,
2016/6/13,22:00:00,2,�k��,1.8,10.8,99.9,1,0,3,���k��,4.3,15,,
2016/6/13,23:00:00,3,���k��,2.3,10.4,99.9,0.5,0,3,���k��,5,37,,
2016/6/13,0:00:00,3,���k��,3.2,10,99.9,0.5,0,2,�k��,5.7,29,,
2016/6/14,1:00:00,2,�k��,2.2,10.4,100,1,0,2,�k��,5,5,,
2016/6/14,2:00:00,3,���k��,2.7,10.4,100,0.5,0,2,�k��,4.4,59,,
2016/6/14,3:00:00,2,�k��,2.2,10.4,100,0.5,0,3,���k��,4.7,34,,
2016/6/14,4:00:00,2,�k��,2.6,10.2,100,0.5,0,3,���k��,5.1,50,,
2016/6/14,5:00:00,2,�k��,2.8,10.2,100,0,0.01,2,�k��,5,51,,
2016/6/14,6:00:00,2,�k��,3.4,10.3,100,1,0.02,2,�k��,5.7,55,,
2016/6/14,7:00:00,3,���k��,3.5,10.4,100,0.5,0.07,3,���k��,5.5,58,,
2016/6/14,8:00:00,2,�k��,4,10.4,100,0,0.07,3,���k��,7.3,4,,
2016/6/14,9:00:00,2,�k��,3.3,10.2,100,1,0.1,3,���k��,5.9,11,,
2016/6/14,10:00:00,3,���k��,3.4,10.2,100,0,0.12,3,���k��,6.2,52,,
2016/6/14,11:00:00,3,���k��,3.2,10.9,100,0,0.18,3,���k��,5.7,5,,
2016/6/14,12:00:00,3,���k��,3,11.8,99.5,0,0.29,3,���k��,5.1,25,,
2016/6/14,13:00:00,3,���k��,3.1,11.1,98.3,0,0.23,3,���k��,5.6,25,,
2016/6/14,14:00:00,3,���k��,3.4,10.5,97.2,0,0.24,3,���k��,6.6,27,,
2016/6/14,15:00:00,3,���k��,1.9,11.1,97.3,0,0.17,4,��,5.4,36,,
2016/6/14,16:00:00,2,�k��,1.5,11.1,96.7,0,0.15,3,���k��,3.6,43,,
2016/6/14,17:00:00,5,���쓌,1.2,11.3,97,0,0.08,3,���k��,2.8,2,,
2016/6/14,18:00:00,3,���k��,1.9,11,98.2,0,0.04,3,���k��,2.9,56,,
2016/6/14,19:00:00,2,�k��,1.1,11.1,99.1,0,0.01,3,���k��,3.1,10,,
2016/6/14,20:00:00,3,���k��,3,10.7,99.3,0,0,4,��,4.5,57,,
2016/6/14,21:00:00,2,�k��,2,10.4,99.5,0.5,0,3,���k��,6.3,11,,
2016/6/14,22:00:00,2,�k��,1.1,10.2,99.5,0,0,2,�k��,3.8,19,,
2016/6/14,23:00:00,2,�k��,0.5,10,99.6,0,0,4,��,3.7,18,,
2016/6/14,0:00:00,3,���k��,0.9,10.2,99.7,0,0,2,�k��,1.3,51,,
2016/6/15,1:00:00,3,���k��,1.7,10,99.7,0,0,3,���k��,3,26,,
2016/6/15,2:00:00,4,��,1.9,9.5,99.2,0,0,3,���k��,4.6,6,,
2016/6/15,3:00:00,3,���k��,2.2,9.2,99.5,0,0,2,�k��,3.3,55,,
2016/6/15,4:00:00,1,�k�k��,1,9.5,99.8,0,0,3,���k��,2.8,0,,
2016/6/15,5:00:00,3,���k��,1.8,9.5,99.9,0,0.02,4,��,2.7,54,,
2016/6/15,6:00:00,2,�k��,0.7,10,99.9,0,0.07,4,��,2.9,11,,
2016/6/15,7:00:00,4,��,2.3,9.7,99.8,0,0.09,4,��,3.6,58,,
2016/6/15,8:00:00,4,��,2.2,9.9,99.6,0,0.12,4,��,3.4,48,,
2016/6/15,9:00:00,4,��,2.2,9.8,98.9,0,0.18,4,��,4.1,49,,
2016/6/15,10:00:00,5,���쓌,2.5,10.2,97.4,0,0.25,5,���쓌,4,46,,
2016/6/15,11:00:00,4,��,2.7,10.4,97,0,0.32,4,��,4.6,56,,
2016/6/15,12:00:00,4,��,2.5,10.5,95.4,0,0.33,3,���k��,4.1,33,,
2016/6/15,13:00:00,4,��,2.4,11,96.9,0,0.3,4,��,4.2,12,,
2016/6/15,14:00:00,4,��,2.1,10.4,96.2,0,0.29,5,���쓌,4.5,13,,
2016/6/15,15:00:00,3,���k��,2.5,10.5,98,0,0.23,3,���k��,3.9,40,,
2016/6/15,16:00:00,3,���k��,1,10.7,98.6,0,0.18,3,���k��,3.2,11,,
2016/6/15,17:00:00,4,��,1.6,10.8,98.4,0,0.1,4,��,2.4,55,,
2016/6/15,18:00:00,3,���k��,1.6,10.4,99,0,0.05,4,��,2.7,24,,
2016/6/15,19:00:00,2,�k��,0.9,10.4,99.3,0,0.01,2,�k��,2,6,,
2016/6/15,20:00:00,4,��,1.2,10.4,99.4,0,0,3,���k��,2.5,59,,
2016/6/15,21:00:00,3,���k��,1.5,10.4,99.4,0,0,3,���k��,2.8,11,,
2016/6/15,22:00:00,3,���k��,2.2,9.7,99.4,0,0,3,���k��,3.9,41,,
2016/6/15,23:00:00,3,���k��,2,9.7,99.5,0,0,3,���k��,4.2,21,,
2016/6/15,0:00:00,3,���k��,2.5,9.5,99.5,0,0,3,���k��,3.9,42,,
2016/6/16,1:00:00,2,�k��,2,9.4,99.3,0,0,2,�k��,3.6,53,,
2016/6/16,2:00:00,3,���k��,2.4,9.3,98.9,0,0,3,���k��,4.5,22,,
2016/6/16,3:00:00,3,���k��,2.5,9.4,98.9,0,0,3,���k��,4.2,37,,
2016/6/16,4:00:00,2,�k��,1.9,9.2,99,0,0,2,�k��,5.3,27,,
2016/6/16,5:00:00,3,���k��,2.2,9.4,99.3,0,0.02,2,�k��,4.4,43,,
2016/6/16,6:00:00,2,�k��,1.2,9.7,99.5,0,0.04,3,���k��,3.4,32,,
2016/6/16,7:00:00,2,�k��,2.5,10,99.4,0,0.07,3,���k��,3.9,50,,
2016/6/16,8:00:00,3,���k��,2.8,10.2,98.6,0,0.11,3,���k��,4.4,51,,
2016/6/16,9:00:00,2,�k��,2.2,10.8,98.4,0,0.13,2,�k��,5,34,,
2016/6/16,10:00:00,3,���k��,3.1,10.6,98.6,0,0.13,3,���k��,5,49,,
2016/6/16,11:00:00,2,�k��,3,10.6,99,0.5,0.13,2,�k��,4.9,59,,
2016/6/16,12:00:00,3,���k��,3.2,10.7,99.1,0,0.12,3,���k��,4.9,54,,
2016/6/16,13:00:00,2,�k��,2.7,11.6,99.4,0,0.15,2,�k��,4.7,8,,
2016/6/16,14:00:00,2,�k��,2.2,11.5,99.3,1.5,0.11,3,���k��,5.2,22,,
2016/6/16,15:00:00,2,�k��,2.6,11.8,99.3,2.5,0.08,3,���k��,4.3,54,,
2016/6/16,16:00:00,4,��,1.5,11.4,99.3,2,0.05,1,�k�k��,3.6,17,,
2016/6/16,17:00:00,4,��,3.1,11.1,99.6,2,0.03,2,�k��,6,9,,
2016/6/16,18:00:00,4,��,4.6,11.3,99.8,2.5,0.02,3,���k��,7.6,20,,
2016/6/16,19:00:00,4,��,4,11.6,99.9,4.5,0.01,5,���쓌,7.4,36,,
2016/6/16,20:00:00,3,���k��,2.9,11.5,99.9,5.5,0,4,��,6.9,3,,
2016/6/16,21:00:00,3,���k��,4.9,12.1,100,8,0,3,���k��,8,54,,
2016/6/16,22:00:00,3,���k��,3.1,11.5,99.8,11.5,0,3,���k��,7.8,10,,
2016/6/16,23:00:00,3,���k��,5.2,11.9,99.9,9.5,0,3,���k��,8.1,44,,
2016/6/16,0:00:00,3,���k��,6.4,11.7,99.8,5.5,0,3,���k��,12.3,28,,
2016/6/17,1:00:00,3,���k��,6.7,10.9,99.7,3,0,3,���k��,10.9,38,,
2016/6/17,2:00:00,3,���k��,6.4,10.7,99.7,2,0,3,���k��,11.2,4,,
2016/6/17,3:00:00,2,�k��,3.7,10.7,99.7,2,0,3,���k��,10.6,14,,
2016/6/17,4:00:00,15,�k�k��,1.8,11.5,99.8,2.5,0,1,�k�k��,6.4,15,,